Time,TemperatureF,DewpointF,PressureIn,WindDirection,WindDirectionDegrees,WindSpeedMPH,WindSpeedGustMPH,Humidity,HourlyPrecipIn,Conditions,Clouds,dailyrainin,SoftwareType,DateUTC
2013-11-10 00:01:00,32.9,18.9,30.05,SSE,151,0.0,0.0,56,0.00,,---,0.00,VWS V14.01,2013-11-10 07:01:00,
2013-11-10 00:06:00,32.7,18.8,30.05,SSE,151,0.0,0.0,56,0.00,,---,0.00,VWS V14.01,2013-11-10 07:06:00,
2013-11-10 00:11:00,32.7,19.2,30.05,SSE,151,0.0,0.0,57,0.00,,---,0.00,VWS V14.01,2013-11-10 07:11:00,
2013-11-10 00:16:00,32.7,19.2,30.05,SSE,151,0.0,0.0,57,0.00,,---,0.00,VWS V14.01,2013-11-10 07:16:00,
2013-11-10 00:21:00,32.5,19.0,30.05,SSE,151,0.0,0.0,57,0.00,,---,0.00,VWS V14.01,2013-11-10 07:21:00,
2013-11-10 00:26:00,32.7,19.2,30.05,SSE,166,0.0,0.0,57,0.00,,---,0.00,VWS V14.01,2013-11-10 07:26:00,
2013-11-10 00:31:00,32.5,19.0,30.05,SSE,166,0.0,0.0,57,0.00,,---,0.00,VWS V14.01,2013-11-10 07:31:00,
2013-11-10 00:36:00,32.7,19.2,30.05,SSE,166,0.0,0.0,57,0.00,,---,0.00,VWS V14.01,2013-11-10 07:36:00,
2013-11-10 00:41:00,32.5,19.0,30.05,SSE,166,0.0,0.0,57,0.00,,---,0.00,VWS V14.01,2013-11-10 07:41:00,
2013-11-10 00:46:00,32.5,19.0,30.05,WSW,250,0.0,0.0,57,0.00,,---,0.00,VWS V14.01,2013-11-10 07:46:00,
2013-11-10 00:51:00,32.7,19.2,30.05,WSW,250,0.0,0.0,57,0.00,,---,0.00,VWS V14.01,2013-11-10 07:51:00,
2013-11-10 00:56:00,32.7,19.2,30.05,WSW,250,0.0,0.0,57,0.00,,---,0.00,VWS V14.01,2013-11-10 07:56:00,
2013-11-10 01:01:00,32.7,19.2,30.05,SW,233,0.0,0.0,57,0.00,,---,0.00,VWS V14.01,2013-11-10 08:01:00,
2013-11-10 01:06:00,32.9,19.8,30.05,SW,232,0.0,0.0,58,0.00,,---,0.00,VWS V14.01,2013-11-10 08:06:00,
2013-11-10 01:11:00,33.1,19.9,30.05,SW,232,0.0,0.0,58,0.00,,---,0.00,VWS V14.01,2013-11-10 08:11:00,
2013-11-10 01:16:00,33.1,19.9,30.05,SW,232,0.0,0.0,58,0.00,,---,0.00,VWS V14.01,2013-11-10 08:16:00,
2013-11-10 01:21:00,33.1,19.9,30.05,SW,232,0.0,0.0,58,0.00,,---,0.00,VWS V14.01,2013-11-10 08:21:00,
2013-11-10 01:26:00,33.1,19.9,30.05,SW,232,0.0,0.0,58,0.00,,---,0.00,VWS V14.01,2013-11-10 08:26:00,
2013-11-10 01:31:00,33.1,19.9,30.05,SW,232,0.0,0.0,58,0.00,,---,0.00,VWS V14.01,2013-11-10 08:31:00,
2013-11-10 01:36:00,32.9,19.8,30.05,SW,232,0.0,0.0,58,0.00,,---,0.00,VWS V14.01,2013-11-10 08:36:00,
2013-11-10 01:41:00,32.9,20.2,30.05,SW,232,0.0,0.0,59,0.00,,---,0.00,VWS V14.01,2013-11-10 08:41:00,
2013-11-10 01:46:00,33.1,20.3,30.05,SW,232,0.0,0.0,59,0.00,,---,0.00,VWS V14.01,2013-11-10 08:46:00,
2013-11-10 01:51:00,33.1,20.7,30.05,SW,232,0.0,0.0,60,0.00,,---,0.00,VWS V14.01,2013-11-10 08:51:00,
2013-11-10 01:56:00,33.4,21.5,30.05,SW,232,0.0,0.0,61,0.00,,---,0.00,VWS V14.01,2013-11-10 08:56:00,
2013-11-10 02:01:00,33.4,21.5,30.05,SW,232,0.0,0.0,61,0.00,,---,0.00,VWS V14.01,2013-11-10 09:01:00,
2013-11-10 02:06:00,33.8,21.8,30.05,SW,232,0.0,0.0,61,0.00,,---,0.00,VWS V14.01,2013-11-10 09:06:00,
2013-11-10 02:11:00,34.0,22.0,30.05,SW,232,0.0,0.0,61,0.00,,---,0.00,VWS V14.01,2013-11-10 09:11:00,
2013-11-10 02:16:00,34.2,22.1,30.05,SW,232,0.0,0.0,61,0.00,,---,0.00,VWS V14.01,2013-11-10 09:16:00,
2013-11-10 02:21:00,34.2,21.7,30.05,SW,232,0.0,0.0,60,0.00,,---,0.00,VWS V14.01,2013-11-10 09:21:00,
2013-11-10 02:26:00,34.3,21.9,30.05,SW,232,0.0,0.0,60,0.00,,---,0.00,VWS V14.01,2013-11-10 09:26:00,
2013-11-10 02:31:00,34.3,21.9,30.05,SW,232,0.0,0.0,60,0.00,,---,0.00,VWS V14.01,2013-11-10 09:31:00,
2013-11-10 02:36:00,34.5,22.1,30.05,ESE,104,0.0,0.0,60,0.00,,---,0.00,VWS V14.01,2013-11-10 09:36:00,
2013-11-10 02:41:00,34.3,21.9,30.05,ESE,104,0.0,0.0,60,0.00,,---,0.00,VWS V14.01,2013-11-10 09:41:00,
2013-11-10 02:46:00,34.2,21.7,30.05,SSW,207,0.0,0.0,60,0.00,,---,0.00,VWS V14.01,2013-11-10 09:46:00,
2013-11-10 02:51:00,34.3,22.3,30.05,SSW,207,0.0,0.0,61,0.00,,---,0.00,VWS V14.01,2013-11-10 09:51:00,
2013-11-10 02:56:00,34.3,22.3,30.05,SE,139,0.0,0.0,61,0.00,,---,0.00,VWS V14.01,2013-11-10 09:56:00,
2013-11-10 03:01:00,34.3,22.3,30.05,SE,139,0.0,0.0,61,0.00,,---,0.00,VWS V14.01,2013-11-10 10:01:00,
2013-11-10 03:06:00,34.3,22.3,30.05,SE,139,0.0,0.0,61,0.00,,---,0.00,VWS V14.01,2013-11-10 10:06:00,
2013-11-10 03:11:00,34.3,22.3,30.05,SE,139,0.0,0.0,61,0.00,,---,0.00,VWS V14.01,2013-11-10 10:11:00,
2013-11-10 03:16:00,34.2,22.1,30.05,SE,139,0.0,0.0,61,0.00,,---,0.00,VWS V14.01,2013-11-10 10:16:00,
2013-11-10 03:21:00,34.2,22.1,30.05,SE,139,0.0,0.0,61,0.00,,---,0.00,VWS V14.01,2013-11-10 10:21:00,
2013-11-10 03:26:00,34.0,22.0,30.05,SE,139,0.0,0.0,61,0.00,,---,0.00,VWS V14.01,2013-11-10 10:26:00,
2013-11-10 03:31:00,34.0,22.0,30.05,SE,139,0.0,0.0,61,0.00,,---,0.00,VWS V14.01,2013-11-10 10:31:00,
2013-11-10 03:36:00,34.0,22.0,30.05,SE,139,0.0,0.0,61,0.00,,---,0.00,VWS V14.01,2013-11-10 10:36:00,
2013-11-10 03:41:00,34.0,22.0,30.05,SE,139,0.0,0.0,61,0.00,,---,0.00,VWS V14.01,2013-11-10 10:41:00,
2013-11-10 03:46:00,34.0,22.0,30.05,SE,139,0.0,0.0,61,0.00,,---,0.00,VWS V14.01,2013-11-10 10:46:00,
2013-11-10 03:51:00,34.0,22.0,30.05,SE,139,0.0,0.0,61,0.00,,---,0.00,VWS V14.01,2013-11-10 10:51:00,
2013-11-10 03:56:00,34.0,22.0,30.05,SE,139,0.0,0.0,61,0.00,,---,0.00,VWS V14.01,2013-11-10 10:56:00,
2013-11-10 04:01:00,34.0,22.0,30.05,SE,139,0.0,0.0,61,0.00,,---,0.00,VWS V14.01,2013-11-10 11:01:00,
2013-11-10 04:06:00,34.0,22.0,30.05,SE,139,0.0,0.0,61,0.00,,---,0.00,VWS V14.01,2013-11-10 11:06:00,
2013-11-10 04:11:00,34.2,22.5,30.05,SE,139,0.0,0.0,62,0.00,,---,0.00,VWS V14.01,2013-11-10 11:11:00,
2013-11-10 04:16:00,34.3,22.7,30.05,SE,139,0.0,0.0,62,0.00,,---,0.00,VWS V14.01,2013-11-10 11:16:00,
2013-11-10 04:20:00,34.5,22.9,30.05,SE,139,0.0,0.0,62,0.00,,---,0.00,VWS V14.01,2013-11-10 11:20:00,
2013-11-10 04:25:00,34.7,23.0,30.05,SE,139,0.0,0.0,62,0.00,,---,0.00,VWS V14.01,2013-11-10 11:25:00,
2013-11-10 04:30:00,34.7,23.0,30.05,SE,139,0.0,0.0,62,0.00,,---,0.00,VWS V14.01,2013-11-10 11:30:00,
2013-11-10 04:35:00,34.9,23.2,30.05,SE,139,0.0,0.0,62,0.00,,---,0.00,VWS V14.01,2013-11-10 11:35:00,
2013-11-10 04:40:00,34.7,23.0,30.05,SE,139,0.0,0.0,62,0.00,,---,0.00,VWS V14.01,2013-11-10 11:40:00,
2013-11-10 04:45:00,34.5,22.9,30.05,ENE,78,0.0,0.0,62,0.00,,---,0.00,VWS V14.01,2013-11-10 11:45:00,
2013-11-10 04:50:00,34.5,22.9,30.05,ENE,78,0.0,0.0,62,0.00,,---,0.00,VWS V14.01,2013-11-10 11:50:00,
2013-11-10 04:55:00,34.5,22.9,30.05,ENE,78,0.0,0.0,62,0.00,,---,0.00,VWS V14.01,2013-11-10 11:55:00,
2013-11-10 05:00:00,34.5,22.9,30.05,ENE,78,0.0,0.0,62,0.00,,---,0.00,VWS V14.01,2013-11-10 12:00:00,
2013-11-10 05:05:00,34.5,22.9,30.05,ENE,78,0.0,0.0,62,0.00,,---,0.00,VWS V14.01,2013-11-10 12:05:00,
2013-11-10 05:10:00,34.5,22.9,30.05,ENE,78,0.0,0.0,62,0.00,,---,0.00,VWS V14.01,2013-11-10 12:10:00,
2013-11-10 05:15:00,34.3,22.7,30.05,ENE,78,0.0,0.0,62,0.00,,---,0.00,VWS V14.01,2013-11-10 12:15:00,
2013-11-10 05:20:00,34.3,22.7,30.05,ENE,78,0.0,0.0,62,0.00,,---,0.00,VWS V14.01,2013-11-10 12:20:00,
2013-11-10 05:25:00,34.3,22.7,30.05,ENE,78,0.0,0.0,62,0.00,,---,0.00,VWS V14.01,2013-11-10 12:25:00,
2013-11-10 05:30:00,34.2,22.5,30.05,ENE,78,0.0,0.0,62,0.00,,---,0.00,VWS V14.01,2013-11-10 12:30:00,
2013-11-10 05:35:00,34.0,22.4,30.05,SSE,162,0.0,0.0,62,0.00,,---,0.00,VWS V14.01,2013-11-10 12:35:00,
2013-11-10 05:40:00,34.0,22.4,30.05,SSE,162,0.0,0.0,62,0.00,,---,0.00,VWS V14.01,2013-11-10 12:40:00,
2013-11-10 05:45:00,33.8,22.2,30.05,SSE,162,0.0,0.0,62,0.00,,---,0.00,VWS V14.01,2013-11-10 12:45:00,
2013-11-10 05:50:00,33.8,22.5,30.05,SSE,162,0.0,0.0,63,0.00,,---,0.00,VWS V14.01,2013-11-10 12:50:00,
2013-11-10 05:55:00,33.4,21.8,30.05,SSE,162,0.0,0.0,62,0.00,,---,0.00,VWS V14.01,2013-11-10 12:55:00,
2013-11-10 06:00:00,33.4,22.2,30.05,SSE,162,0.0,0.0,63,0.00,,---,0.00,VWS V14.01,2013-11-10 13:00:00,
2013-11-10 06:05:00,33.4,22.2,30.05,SSE,162,0.0,0.0,63,0.00,,---,0.00,VWS V14.01,2013-11-10 13:05:00,
2013-11-10 06:10:00,33.4,22.2,30.02,SSE,162,0.0,0.0,63,0.00,,---,0.00,VWS V14.01,2013-11-10 13:10:00,
2013-11-10 06:15:00,33.3,22.0,30.02,SSE,162,0.0,0.0,63,0.00,,---,0.00,VWS V14.01,2013-11-10 13:15:00,
2013-11-10 06:20:00,33.4,22.2,30.02,SSE,162,0.0,0.0,63,0.00,,---,0.00,VWS V14.01,2013-11-10 13:20:00,
2013-11-10 06:25:00,33.3,22.0,30.02,SSE,162,0.0,0.0,63,0.00,,---,0.00,VWS V14.01,2013-11-10 13:25:00,
2013-11-10 06:30:00,33.3,22.0,30.02,SSE,162,0.0,0.0,63,0.00,,---,0.00,VWS V14.01,2013-11-10 13:30:00,
2013-11-10 06:35:00,33.3,22.0,30.02,SSE,162,0.0,0.0,63,0.00,,---,0.00,VWS V14.01,2013-11-10 13:35:00,
2013-11-10 06:40:00,33.4,22.2,30.02,SSE,162,0.0,0.0,63,0.00,,---,0.00,VWS V14.01,2013-11-10 13:40:00,
2013-11-10 06:45:00,33.4,22.2,30.02,WSW,237,0.0,0.0,63,0.00,,---,0.00,VWS V14.01,2013-11-10 13:45:00,
2013-11-10 06:50:00,33.4,22.2,30.02,WSW,237,0.0,0.0,63,0.00,,---,0.00,VWS V14.01,2013-11-10 13:50:00,
2013-11-10 06:55:00,33.4,22.6,30.02,WSW,237,0.0,0.0,64,0.00,,---,0.00,VWS V14.01,2013-11-10 13:55:00,
2013-11-10 07:00:00,33.4,22.6,30.02,WSW,237,0.0,0.0,64,0.00,,---,0.00,VWS V14.01,2013-11-10 14:00:00,
2013-11-10 07:05:00,33.3,22.0,30.02,SE,131,0.0,0.0,63,0.00,,---,0.00,VWS V14.01,2013-11-10 14:05:00,
2013-11-10 07:10:00,33.1,21.9,30.02,SE,131,0.0,0.0,63,0.00,,---,0.00,VWS V14.01,2013-11-10 14:10:00,
2013-11-10 07:15:00,32.7,21.5,30.02,SE,131,0.0,0.0,63,0.00,,---,0.00,VWS V14.01,2013-11-10 14:15:00,
2013-11-10 07:20:00,32.5,21.4,30.02,SE,131,0.0,0.0,63,0.00,,---,0.00,VWS V14.01,2013-11-10 14:20:00,
2013-11-10 07:25:00,32.4,21.2,30.02,SE,131,0.0,0.0,63,0.00,,---,0.00,VWS V14.01,2013-11-10 14:25:00,
2013-11-10 07:30:00,32.4,21.6,30.02,SE,131,0.0,0.0,64,0.00,,---,0.00,VWS V14.01,2013-11-10 14:30:00,
2013-11-10 07:35:00,32.5,21.7,30.02,SE,131,0.0,0.0,64,0.00,,---,0.00,VWS V14.01,2013-11-10 14:35:00,
2013-11-10 07:40:00,32.7,22.3,30.02,SE,131,0.0,0.0,65,0.00,,---,0.00,VWS V14.01,2013-11-10 14:40:00,
2013-11-10 07:45:00,32.9,22.4,30.02,SE,131,0.0,0.0,65,0.00,,---,0.00,VWS V14.01,2013-11-10 14:45:00,
2013-11-10 07:50:00,33.4,23.3,30.02,West,278,0.0,0.0,66,0.00,,---,0.00,VWS V14.01,2013-11-10 14:50:00,
2013-11-10 07:55:00,33.6,23.5,30.02,West,263,0.0,0.0,66,0.00,,---,0.00,VWS V14.01,2013-11-10 14:55:00,
2013-11-10 08:00:00,34.2,24.4,30.02,West,263,0.0,0.0,67,0.00,,---,0.00,VWS V14.01,2013-11-10 15:00:00,
2013-11-10 08:05:00,34.3,24.5,30.02,NE,50,0.0,0.0,67,0.00,,---,0.00,VWS V14.01,2013-11-10 15:05:00,
2013-11-10 08:10:00,34.3,24.2,30.02,NNE,27,0.0,0.0,66,0.00,,---,0.00,VWS V14.01,2013-11-10 15:10:00,
2013-11-10 08:15:00,34.5,25.1,30.02,North,353,0.0,0.0,68,0.00,,---,0.00,VWS V14.01,2013-11-10 15:15:00,
2013-11-10 08:20:00,34.7,25.9,30.02,North,357,0.0,0.0,70,0.00,,---,0.00,VWS V14.01,2013-11-10 15:20:00,
2013-11-10 08:25:00,34.9,26.5,30.02,North,9,0.0,4.0,71,0.00,,---,0.00,VWS V14.01,2013-11-10 15:25:00,
2013-11-10 08:30:00,35.1,27.0,30.02,North,7,2.7,2.7,72,0.00,,---,0.00,VWS V14.01,2013-11-10 15:30:00,
2013-11-10 08:35:00,35.1,27.0,30.02,North,6,0.0,2.7,72,0.00,,---,0.00,VWS V14.01,2013-11-10 15:35:00,
2013-11-10 08:40:00,35.4,27.0,30.02,NNE,31,0.0,2.7,71,0.00,,---,0.00,VWS V14.01,2013-11-10 15:40:00,
2013-11-10 08:45:00,35.4,27.3,30.02,North,9,0.0,0.0,72,0.00,,---,0.00,VWS V14.01,2013-11-10 15:45:00,
2013-11-10 08:50:00,35.4,27.3,30.02,North,0,2.7,4.0,72,0.00,,---,0.00,VWS V14.01,2013-11-10 15:50:00,
2013-11-10 08:55:00,35.2,27.5,30.02,North,353,0.0,4.0,73,0.00,,---,0.00,VWS V14.01,2013-11-10 15:55:00,
2013-11-10 09:00:00,35.4,27.6,30.02,North,0,0.0,0.0,73,0.00,,---,0.00,VWS V14.01,2013-11-10 16:00:00,
2013-11-10 09:05:00,35.4,27.6,30.02,North,3,0.0,3.6,73,0.00,,---,0.00,VWS V14.01,2013-11-10 16:05:00,
2013-11-10 09:10:00,35.6,27.8,30.05,North,4,0.0,3.6,73,0.00,,---,0.00,VWS V14.01,2013-11-10 16:10:00,
2013-11-10 09:15:00,35.6,27.8,30.05,North,4,0.0,0.0,73,0.00,,---,0.00,VWS V14.01,2013-11-10 16:15:00,
2013-11-10 09:20:00,35.6,27.5,30.05,North,6,0.0,0.0,72,0.00,,---,0.00,VWS V14.01,2013-11-10 16:20:00,
2013-11-10 09:25:00,35.6,27.5,30.02,North,0,0.0,3.6,72,0.00,,---,0.00,VWS V14.01,2013-11-10 16:25:00,
2013-11-10 09:30:00,35.8,27.6,30.02,North,350,0.0,0.0,72,0.00,,---,0.00,VWS V14.01,2013-11-10 16:30:00,
2013-11-10 09:35:00,35.8,27.6,30.02,North,0,0.0,0.0,72,0.00,,---,0.00,VWS V14.01,2013-11-10 16:35:00,
2013-11-10 09:40:00,36.3,28.2,30.05,WNW,291,0.0,0.0,72,0.00,,---,0.00,VWS V14.01,2013-11-10 16:40:00,
2013-11-10 09:45:00,36.7,28.2,30.05,NW,320,0.0,0.0,71,0.00,,---,0.00,VWS V14.01,2013-11-10 16:45:00,
2013-11-10 09:50:00,37.6,28.4,30.05,West,259,0.0,3.1,69,0.00,,---,0.00,VWS V14.01,2013-11-10 16:50:00,
2013-11-10 09:55:00,39.0,28.3,30.05,North,0,0.0,3.1,65,0.00,,---,0.00,VWS V14.01,2013-11-10 16:55:00,
2013-11-10 10:00:00,40.3,27.5,30.05,North,11,0.0,0.0,60,0.00,,---,0.00,VWS V14.01,2013-11-10 17:00:00,
2013-11-10 10:05:00,40.6,24.4,30.05,North,357,0.0,3.6,52,0.00,,---,0.00,VWS V14.01,2013-11-10 17:05:00,
2013-11-10 10:10:00,41.0,24.3,30.02,North,8,0.0,3.6,51,0.00,,---,0.00,VWS V14.01,2013-11-10 17:10:00,
2013-11-10 10:15:00,41.2,24.4,30.02,North,9,0.0,0.0,51,0.00,,---,0.00,VWS V14.01,2013-11-10 17:15:00,
2013-11-10 10:20:00,41.5,24.3,30.02,North,357,3.1,4.0,50,0.00,,---,0.00,VWS V14.01,2013-11-10 17:20:00,
2013-11-10 10:25:00,41.7,24.0,30.02,NNE,13,3.6,4.0,49,0.00,,---,0.00,VWS V14.01,2013-11-10 17:25:00,
2013-11-10 10:30:00,41.7,23.5,30.02,North,9,3.6,3.6,48,0.00,,---,0.00,VWS V14.01,2013-11-10 17:30:00,
2013-11-10 10:35:00,40.8,23.1,30.02,NNE,23,4.0,5.4,49,0.00,,---,0.00,VWS V14.01,2013-11-10 17:35:00,
2013-11-10 10:40:00,40.5,23.3,30.05,North,4,3.1,5.4,50,0.00,,---,0.00,VWS V14.01,2013-11-10 17:40:00,
2013-11-10 10:45:00,40.3,23.1,30.05,North,0,3.6,3.6,50,0.00,,---,0.00,VWS V14.01,2013-11-10 17:45:00,
2013-11-10 10:50:00,40.3,22.7,30.05,North,357,2.7,4.0,49,0.00,,---,0.00,VWS V14.01,2013-11-10 17:50:00,
2013-11-10 10:55:00,40.5,22.3,30.05,North,10,2.7,4.0,48,0.00,,---,0.00,VWS V14.01,2013-11-10 17:55:00,
2013-11-10 11:00:00,40.3,21.2,30.05,North,3,3.1,3.6,46,0.00,,---,0.00,VWS V14.01,2013-11-10 18:00:00,
2013-11-10 11:05:00,40.3,21.7,30.05,North,0,2.2,4.0,47,0.00,,---,0.00,VWS V14.01,2013-11-10 18:05:00,
2013-11-10 11:10:00,40.8,22.7,30.05,North,357,0.0,4.0,48,0.00,,---,0.00,VWS V14.01,2013-11-10 18:10:00,
2013-11-10 11:15:00,41.4,22.1,30.05,North,357,0.0,0.0,46,0.00,,---,0.00,VWS V14.01,2013-11-10 18:15:00,
2013-11-10 11:20:00,41.5,22.3,30.05,NW,309,0.0,0.0,46,0.00,,---,0.00,VWS V14.01,2013-11-10 18:20:00,
2013-11-10 11:25:00,43.0,24.6,30.05,ENE,71,0.0,3.6,48,0.00,,---,0.00,VWS V14.01,2013-11-10 18:25:00,
2013-11-10 11:30:00,44.8,24.8,30.05,ENE,71,0.0,0.0,45,0.00,,---,0.00,VWS V14.01,2013-11-10 18:30:00,
2013-11-10 11:35:00,46.2,26.6,30.05,ESE,102,0.0,4.0,46,0.00,,---,0.00,VWS V14.01,2013-11-10 18:35:00,
2013-11-10 11:40:00,46.6,25.9,30.05,ENE,71,2.7,4.0,44,0.00,,---,0.00,VWS V14.01,2013-11-10 18:40:00,
2013-11-10 11:45:00,46.2,25.5,30.05,ENE,68,2.7,3.6,44,0.00,,---,0.00,VWS V14.01,2013-11-10 18:45:00,
2013-11-10 11:50:00,45.9,25.2,30.05,East,88,3.1,4.0,44,0.00,,---,0.00,VWS V14.01,2013-11-10 18:50:00,
2013-11-10 11:55:00,45.7,25.0,30.05,East,86,0.0,4.0,44,0.00,,---,0.00,VWS V14.01,2013-11-10 18:55:00,
2013-11-10 12:00:00,46.0,25.4,30.05,ESE,106,0.0,0.0,44,0.00,,---,0.00,VWS V14.01,2013-11-10 19:00:00,
2013-11-10 12:05:00,47.8,27.0,30.05,SSE,153,3.1,3.1,44,0.00,,---,0.00,VWS V14.01,2013-11-10 19:05:00,
2013-11-10 12:10:00,49.3,27.2,30.02,ENE,72,0.0,4.0,42,0.00,,---,0.00,VWS V14.01,2013-11-10 19:10:00,
2013-11-10 12:15:00,51.1,28.8,30.02,ESE,121,0.0,0.0,42,0.00,,---,0.00,VWS V14.01,2013-11-10 19:15:00,
2013-11-10 12:20:00,52.7,29.1,30.02,SSW,193,0.0,0.0,40,0.00,,---,0.00,VWS V14.01,2013-11-10 19:20:00,
2013-11-10 12:25:00,53.4,28.5,30.02,SSW,198,0.0,0.0,38,0.00,,---,0.00,VWS V14.01,2013-11-10 19:25:00,
2013-11-10 12:30:00,54.1,28.5,30.02,ENE,70,3.6,3.6,37,0.00,,---,0.00,VWS V14.01,2013-11-10 19:30:00,
2013-11-10 12:35:00,54.5,28.1,30.02,ESE,110,2.7,3.6,36,0.00,,---,0.00,VWS V14.01,2013-11-10 19:35:00,
2013-11-10 12:40:00,53.2,26.3,30.02,NNE,21,0.0,4.0,35,0.00,,---,0.00,VWS V14.01,2013-11-10 19:40:00,
2013-11-10 12:45:00,52.7,25.1,30.02,North,3,3.1,3.1,34,0.00,,---,0.00,VWS V14.01,2013-11-10 19:45:00,
2013-11-10 12:50:00,52.3,24.8,30.02,North,10,2.7,4.0,34,0.00,,---,0.00,VWS V14.01,2013-11-10 19:50:00,
2013-11-10 12:55:00,51.4,24.7,30.02,North,357,2.2,4.0,35,0.00,,---,0.00,VWS V14.01,2013-11-10 19:55:00,
2013-11-10 13:00:00,51.1,24.4,30.02,North,353,2.2,3.6,35,0.00,,---,0.00,VWS V14.01,2013-11-10 20:00:00,
2013-11-10 13:05:00,50.9,24.2,30.02,North,8,3.6,4.9,35,0.00,,---,0.00,VWS V14.01,2013-11-10 20:05:00,
2013-11-10 13:10:00,49.6,23.8,30.02,NW,311,2.2,4.9,36,0.00,,---,0.00,VWS V14.01,2013-11-10 20:10:00,
2013-11-10 13:15:00,48.4,23.3,30.02,North,10,3.6,4.9,37,0.00,,---,0.00,VWS V14.01,2013-11-10 20:15:00,
2013-11-10 13:20:00,47.3,23.0,30.02,North,357,3.1,4.9,38,0.00,,---,0.00,VWS V14.01,2013-11-10 20:20:00,
2013-11-10 13:25:00,47.3,23.0,30.02,NNE,17,2.7,4.9,38,0.00,,---,0.00,VWS V14.01,2013-11-10 20:25:00,
2013-11-10 13:30:00,47.3,23.6,30.02,North,7,2.2,2.7,39,0.00,,---,0.00,VWS V14.01,2013-11-10 20:30:00,
2013-11-10 13:35:00,47.5,23.2,30.02,North,5,2.7,4.9,38,0.00,,---,0.00,VWS V14.01,2013-11-10 20:35:00,
2013-11-10 13:40:00,47.7,23.3,30.02,North,357,2.7,4.9,38,0.00,,---,0.00,VWS V14.01,2013-11-10 20:40:00,
2013-11-10 13:45:00,47.7,23.3,30.02,North,0,2.7,4.0,38,0.00,,---,0.00,VWS V14.01,2013-11-10 20:45:00,
2013-11-10 13:50:00,48.2,23.8,30.02,North,6,3.6,5.4,38,0.00,,---,0.00,VWS V14.01,2013-11-10 20:50:00,
2013-11-10 13:55:00,48.0,23.6,30.02,North,353,2.2,6.3,38,0.00,,---,0.00,VWS V14.01,2013-11-10 20:55:00,
2013-11-10 14:00:00,48.0,23.6,30.02,North,5,3.6,3.6,38,0.00,,---,0.00,VWS V14.01,2013-11-10 21:00:00,
2013-11-10 14:05:00,47.8,22.9,30.02,North,6,4.0,4.0,37,0.00,,---,0.00,VWS V14.01,2013-11-10 21:05:00,
2013-11-10 14:10:00,47.8,22.9,30.02,North,6,3.1,4.0,37,0.00,,---,0.00,VWS V14.01,2013-11-10 21:10:00,
2013-11-10 14:15:00,48.2,23.2,30.02,North,353,0.0,0.0,37,0.00,,---,0.00,VWS V14.01,2013-11-10 21:15:00,
2013-11-10 14:20:00,48.9,23.8,30.02,North,353,0.0,3.6,37,0.00,,---,0.00,VWS V14.01,2013-11-10 21:20:00,
2013-11-10 14:25:00,49.6,24.5,30.02,North,357,0.0,3.6,37,0.00,,---,0.00,VWS V14.01,2013-11-10 21:25:00,
2013-11-10 14:30:00,49.6,24.5,30.02,West,275,0.0,0.0,37,0.00,,---,0.00,VWS V14.01,2013-11-10 21:30:00,
2013-11-10 14:35:00,51.3,25.9,30.02,East,97,2.7,3.1,37,0.00,,---,0.00,VWS V14.01,2013-11-10 21:35:00,
2013-11-10 14:40:00,52.0,25.9,30.02,East,81,0.0,3.1,36,0.00,,---,0.00,VWS V14.01,2013-11-10 21:40:00,
2013-11-10 14:45:00,52.5,26.4,30.02,ENE,58,0.0,0.0,36,0.00,,---,0.00,VWS V14.01,2013-11-10 21:45:00,
2013-11-10 14:50:00,53.4,26.5,30.02,East,92,0.0,2.7,35,0.00,,---,0.00,VWS V14.01,2013-11-10 21:50:00,
2013-11-10 14:55:00,52.9,24.6,30.02,North,6,0.0,4.0,33,0.00,,---,0.00,VWS V14.01,2013-11-10 21:55:00,
2013-11-10 15:00:00,52.0,23.8,30.02,NE,36,2.7,2.7,33,0.00,,---,0.00,VWS V14.01,2013-11-10 22:00:00,
2013-11-10 15:05:00,52.9,24.6,30.02,NE,36,0.0,2.7,33,0.00,,---,0.00,VWS V14.01,2013-11-10 22:05:00,
2013-11-10 15:10:00,53.2,25.6,30.02,SSE,152,0.0,2.7,34,0.00,,---,0.00,VWS V14.01,2013-11-10 22:10:00,
2013-11-10 15:15:00,53.2,24.9,30.02,NE,54,0.0,0.0,33,0.00,,---,0.00,VWS V14.01,2013-11-10 22:15:00,
2013-11-10 15:20:00,52.5,24.3,30.02,SE,142,3.1,3.1,33,0.00,,---,0.00,VWS V14.01,2013-11-10 22:20:00,
2013-11-10 15:25:00,52.9,24.6,30.02,ESE,105,4.9,4.9,33,0.00,,---,0.00,VWS V14.01,2013-11-10 22:25:00,
2013-11-10 15:30:00,52.7,24.4,30.02,ESE,111,2.7,2.7,33,0.00,,---,0.00,VWS V14.01,2013-11-10 22:30:00,
2013-11-10 15:35:00,52.3,24.8,30.02,ESE,109,0.0,3.6,34,0.00,,---,0.00,VWS V14.01,2013-11-10 22:35:00,
2013-11-10 15:40:00,52.7,25.1,30.02,ESE,109,0.0,3.6,34,0.00,,---,0.00,VWS V14.01,2013-11-10 22:40:00,
2013-11-10 15:45:00,52.0,23.8,30.02,East,90,0.0,3.6,33,0.00,,---,0.00,VWS V14.01,2013-11-10 22:45:00,
2013-11-10 15:50:00,51.1,23.7,30.02,NE,42,0.0,0.0,34,0.00,,---,0.00,VWS V14.01,2013-11-10 22:50:00,
2013-11-10 15:55:00,50.4,23.8,30.02,NE,42,0.0,0.0,35,0.00,,---,0.00,VWS V14.01,2013-11-10 22:55:00,
2013-11-10 16:00:00,49.5,23.6,30.02,ENE,76,0.0,0.0,36,0.00,,---,0.00,VWS V14.01,2013-11-10 23:00:00,
2013-11-10 16:05:00,48.7,23.6,30.02,ENE,76,0.0,0.0,37,0.00,,---,0.00,VWS V14.01,2013-11-10 23:05:00,
2013-11-10 16:10:00,47.8,22.9,30.02,ENE,57,0.0,0.0,37,0.00,,---,0.00,VWS V14.01,2013-11-10 23:10:00,
2013-11-10 16:15:00,47.3,23.0,30.02,ENE,57,0.0,0.0,38,0.00,,---,0.00,VWS V14.01,2013-11-10 23:15:00,
2013-11-10 16:20:00,47.3,23.0,30.02,ENE,57,0.0,0.0,38,0.00,,---,0.00,VWS V14.01,2013-11-10 23:20:00,
2013-11-10 16:25:00,47.1,22.8,30.02,ENE,57,0.0,0.0,38,0.00,,---,0.00,VWS V14.01,2013-11-10 23:25:00,
2013-11-10 16:30:00,46.9,22.7,30.02,ENE,57,0.0,0.0,38,0.00,,---,0.00,VWS V14.01,2013-11-10 23:30:00,
2013-11-10 16:35:00,46.8,22.5,30.02,ENE,57,0.0,0.0,38,0.00,,---,0.00,VWS V14.01,2013-11-10 23:35:00,
2013-11-10 16:40:00,46.4,22.2,30.02,ENE,57,0.0,0.0,38,0.00,,---,0.00,VWS V14.01,2013-11-10 23:40:00,
2013-11-10 16:45:00,46.0,22.5,30.02,ENE,57,0.0,0.0,39,0.00,,---,0.00,VWS V14.01,2013-11-10 23:45:00,
2013-11-10 16:50:00,45.9,22.3,30.02,ENE,57,0.0,0.0,39,0.00,,---,0.00,VWS V14.01,2013-11-10 23:50:00,
2013-11-10 16:55:00,45.5,22.6,30.02,ENE,57,0.0,0.0,40,0.00,,---,0.00,VWS V14.01,2013-11-10 23:55:00,
2013-11-10 17:00:00,45.1,22.3,30.02,ENE,57,0.0,0.0,40,0.00,,---,0.00,VWS V14.01,2013-11-11 00:00:00,
2013-11-10 17:05:00,44.6,21.8,30.02,ENE,57,0.0,0.0,40,0.00,,---,0.00,VWS V14.01,2013-11-11 00:05:00,
2013-11-10 17:10:00,44.2,21.5,30.02,ENE,57,0.0,0.0,40,0.00,,---,0.00,VWS V14.01,2013-11-11 00:10:00,
2013-11-10 17:15:00,43.7,21.6,30.02,ENE,57,0.0,0.0,41,0.00,,---,0.00,VWS V14.01,2013-11-11 00:15:00,
2013-11-10 17:20:00,43.5,21.4,30.02,ENE,57,0.0,0.0,41,0.00,,---,0.00,VWS V14.01,2013-11-11 00:20:00,
2013-11-10 17:25:00,43.3,21.8,30.02,ENE,57,0.0,0.0,42,0.00,,---,0.00,VWS V14.01,2013-11-11 00:25:00,
2013-11-10 17:30:00,42.8,21.9,30.02,ENE,57,0.0,0.0,43,0.00,,---,0.00,VWS V14.01,2013-11-11 00:30:00,
2013-11-10 17:35:00,42.4,22.6,30.02,ENE,57,0.0,0.0,45,0.00,,---,0.00,VWS V14.01,2013-11-11 00:35:00,
2013-11-10 17:40:00,42.1,22.3,30.02,ENE,57,0.0,0.0,45,0.00,,---,0.00,VWS V14.01,2013-11-11 00:40:00,
2013-11-10 17:45:00,41.5,21.8,30.02,ENE,57,0.0,0.0,45,0.00,,---,0.00,VWS V14.01,2013-11-11 00:45:00,
2013-11-10 17:50:00,41.4,23.2,30.02,North,353,0.0,0.0,48,0.00,,---,0.00,VWS V14.01,2013-11-11 00:50:00,
2013-11-10 17:55:00,41.2,23.0,30.02,North,353,0.0,0.0,48,0.00,,---,0.00,VWS V14.01,2013-11-11 00:55:00,
2013-11-10 18:00:00,41.2,23.0,30.02,North,353,0.0,0.0,48,0.00,,---,0.00,VWS V14.01,2013-11-11 01:00:00,
2013-11-10 18:05:00,41.0,23.8,30.02,North,353,0.0,0.0,50,0.00,,---,0.00,VWS V14.01,2013-11-11 01:05:00,
2013-11-10 18:10:00,40.6,23.0,30.02,North,353,0.0,0.0,49,0.00,,---,0.00,VWS V14.01,2013-11-11 01:10:00,
2013-11-10 18:15:00,40.3,22.7,30.02,North,353,0.0,0.0,49,0.00,,---,0.00,VWS V14.01,2013-11-11 01:15:00,
2013-11-10 18:19:00,40.3,22.7,30.02,North,353,0.0,0.0,49,0.00,,---,0.00,VWS V14.01,2013-11-11 01:19:00,
2013-11-10 18:24:00,39.9,22.3,30.05,North,353,0.0,0.0,49,0.00,,---,0.00,VWS V14.01,2013-11-11 01:24:00,
2013-11-10 18:29:00,39.7,22.2,30.05,North,353,0.0,0.0,49,0.00,,---,0.00,VWS V14.01,2013-11-11 01:29:00,
2013-11-10 18:34:00,39.6,22.0,30.05,North,353,0.0,0.0,49,0.00,,---,0.00,VWS V14.01,2013-11-11 01:34:00,
2013-11-10 18:39:00,39.4,21.8,30.05,North,353,0.0,0.0,49,0.00,,---,0.00,VWS V14.01,2013-11-11 01:39:00,
2013-11-10 18:44:00,39.4,22.3,30.05,North,353,0.0,0.0,50,0.00,,---,0.00,VWS V14.01,2013-11-11 01:44:00,
2013-11-10 18:49:00,39.4,22.3,30.05,WSW,253,0.0,2.7,50,0.00,,---,0.00,VWS V14.01,2013-11-11 01:49:00,
2013-11-10 18:54:00,39.4,22.3,30.05,WSW,243,0.0,2.7,50,0.00,,---,0.00,VWS V14.01,2013-11-11 01:54:00,
2013-11-10 18:59:00,39.4,22.3,30.05,WSW,243,0.0,2.7,50,0.00,,---,0.00,VWS V14.01,2013-11-11 01:59:00,
2013-11-10 19:04:00,39.2,22.6,30.05,West,264,0.0,0.0,51,0.00,,---,0.00,VWS V14.01,2013-11-11 02:04:00,
2013-11-10 19:09:00,39.2,22.6,30.05,West,264,0.0,0.0,51,0.00,,---,0.00,VWS V14.01,2013-11-11 02:09:00,
2013-11-10 19:14:00,39.0,22.4,30.05,West,264,0.0,0.0,51,0.00,,---,0.00,VWS V14.01,2013-11-11 02:14:00,
2013-11-10 19:19:00,38.8,22.7,30.05,West,264,0.0,0.0,52,0.00,,---,0.00,VWS V14.01,2013-11-11 02:19:00,
2013-11-10 19:24:00,38.5,22.4,30.05,West,264,0.0,0.0,52,0.00,,---,0.00,VWS V14.01,2013-11-11 02:24:00,
2013-11-10 19:29:00,38.3,22.2,30.05,West,264,0.0,0.0,52,0.00,,---,0.00,VWS V14.01,2013-11-11 02:29:00,
2013-11-10 19:34:00,37.9,21.9,30.05,West,264,0.0,0.0,52,0.00,,---,0.00,VWS V14.01,2013-11-11 02:34:00,
2013-11-10 19:39:00,37.6,21.6,30.05,West,264,0.0,0.0,52,0.00,,---,0.00,VWS V14.01,2013-11-11 02:39:00,
2013-11-10 19:44:00,37.2,21.7,30.05,West,264,0.0,0.0,53,0.00,,---,0.00,VWS V14.01,2013-11-11 02:44:00,
2013-11-10 19:49:00,36.9,20.9,30.05,West,264,0.0,0.0,52,0.00,,---,0.00,VWS V14.01,2013-11-11 02:49:00,
2013-11-10 19:54:00,36.3,20.8,30.05,West,264,0.0,0.0,53,0.00,,---,0.00,VWS V14.01,2013-11-11 02:54:00,
2013-11-10 19:59:00,36.3,20.8,30.05,West,264,0.0,0.0,53,0.00,,---,0.00,VWS V14.01,2013-11-11 02:59:00,
2013-11-10 20:04:00,36.0,20.5,30.05,West,264,0.0,0.0,53,0.00,,---,0.00,VWS V14.01,2013-11-11 03:04:00,
2013-11-10 20:09:00,35.8,20.3,30.05,West,264,0.0,0.0,53,0.00,,---,0.00,VWS V14.01,2013-11-11 03:09:00,
2013-11-10 20:14:00,35.6,20.6,30.05,West,264,0.0,0.0,54,0.00,,---,0.00,VWS V14.01,2013-11-11 03:14:00,
2013-11-10 20:19:00,35.4,20.4,30.05,West,264,0.0,0.0,54,0.00,,---,0.00,VWS V14.01,2013-11-11 03:19:00,
2013-11-10 20:24:00,35.1,20.1,30.05,West,264,0.0,0.0,54,0.00,,---,0.00,VWS V14.01,2013-11-11 03:24:00,
2013-11-10 20:29:00,35.1,20.5,30.05,West,264,0.0,0.0,55,0.00,,---,0.00,VWS V14.01,2013-11-11 03:29:00,
2013-11-10 20:34:00,35.2,20.7,30.05,West,264,0.0,0.0,55,0.00,,---,0.00,VWS V14.01,2013-11-11 03:34:00,
2013-11-10 20:39:00,35.2,21.1,30.05,SSW,213,0.0,0.0,56,0.00,,---,0.00,VWS V14.01,2013-11-11 03:39:00,
2013-11-10 20:44:00,35.2,21.1,30.05,South,176,0.0,0.0,56,0.00,,---,0.00,VWS V14.01,2013-11-11 03:44:00,
2013-11-10 20:49:00,35.2,21.1,30.05,South,176,0.0,0.0,56,0.00,,---,0.00,VWS V14.01,2013-11-11 03:49:00,
2013-11-10 20:54:00,35.2,21.1,30.05,South,176,0.0,0.0,56,0.00,,---,0.00,VWS V14.01,2013-11-11 03:54:00,
2013-11-10 20:59:00,35.1,21.4,30.05,South,176,0.0,0.0,57,0.00,,---,0.00,VWS V14.01,2013-11-11 03:59:00,
2013-11-10 21:04:00,35.1,21.4,30.05,South,177,0.0,0.0,57,0.00,,---,0.00,VWS V14.01,2013-11-11 04:04:00,
2013-11-10 21:09:00,34.9,21.2,30.05,South,177,0.0,0.0,57,0.00,,---,0.00,VWS V14.01,2013-11-11 04:09:00,
2013-11-10 21:14:00,34.3,20.3,30.05,South,177,0.0,0.0,56,0.00,,---,0.00,VWS V14.01,2013-11-11 04:14:00,
2013-11-10 21:19:00,34.0,20.4,30.05,SSW,204,0.0,0.0,57,0.00,,---,0.00,VWS V14.01,2013-11-11 04:19:00,
2013-11-10 21:24:00,34.0,20.8,30.05,SSW,204,0.0,0.0,58,0.00,,---,0.00,VWS V14.01,2013-11-11 04:24:00,
2013-11-10 21:29:00,34.0,20.8,30.05,SSW,204,0.0,0.0,58,0.00,,---,0.00,VWS V14.01,2013-11-11 04:29:00,
2013-11-10 21:34:00,34.2,21.3,30.05,SSW,204,0.0,0.0,59,0.00,,---,0.00,VWS V14.01,2013-11-11 04:34:00,
2013-11-10 21:39:00,34.3,21.5,30.05,SSW,204,0.0,0.0,59,0.00,,---,0.00,VWS V14.01,2013-11-11 04:39:00,
2013-11-10 21:44:00,34.2,21.3,30.05,SSW,204,0.0,0.0,59,0.00,,---,0.00,VWS V14.01,2013-11-11 04:44:00,
2013-11-10 21:49:00,34.0,21.2,30.05,SSW,204,0.0,0.0,59,0.00,,---,0.00,VWS V14.01,2013-11-11 04:49:00,
2013-11-10 21:54:00,34.0,21.6,30.08,SSW,204,0.0,0.0,60,0.00,,---,0.00,VWS V14.01,2013-11-11 04:54:00,
2013-11-10 21:59:00,34.2,21.7,30.08,SSW,204,0.0,0.0,60,0.00,,---,0.00,VWS V14.01,2013-11-11 04:59:00,
2013-11-10 22:01:00,34.0,21.2,30.08,SSW,204,0.0,0.0,59,0.00,,---,0.00,VWS V14.01,2013-11-11 05:01:00,
2013-11-10 22:06:00,33.8,21.0,30.08,SE,146,0.0,0.0,59,0.00,,---,0.00,VWS V14.01,2013-11-11 05:06:00,
2013-11-10 22:11:00,33.4,21.1,30.08,SE,146,0.0,0.0,60,0.00,,---,0.00,VWS V14.01,2013-11-11 05:11:00,
2013-11-10 22:16:00,33.3,20.9,30.08,ESE,105,0.0,0.0,60,0.00,,---,0.00,VWS V14.01,2013-11-11 05:16:00,
2013-11-10 22:21:00,33.1,20.7,30.08,ESE,106,0.0,0.0,60,0.00,,---,0.00,VWS V14.01,2013-11-11 05:21:00,
2013-11-10 22:26:00,33.1,21.1,30.08,ESE,106,0.0,0.0,61,0.00,,---,0.00,VWS V14.01,2013-11-11 05:26:00,
2013-11-10 22:31:00,33.1,21.1,30.08,SSW,206,0.0,0.0,61,0.00,,---,0.00,VWS V14.01,2013-11-11 05:31:00,
2013-11-10 22:36:00,33.1,21.1,30.08,SE,142,2.7,3.1,61,0.00,,---,0.00,VWS V14.01,2013-11-11 05:36:00,
2013-11-10 22:41:00,33.1,21.5,30.08,SE,136,0.0,3.1,62,0.00,,---,0.00,VWS V14.01,2013-11-11 05:41:00,
2013-11-10 22:46:00,33.1,21.5,30.08,SE,136,0.0,0.0,62,0.00,,---,0.00,VWS V14.01,2013-11-11 05:46:00,
2013-11-10 22:51:00,33.1,21.5,30.08,SE,136,0.0,0.0,62,0.00,,---,0.00,VWS V14.01,2013-11-11 05:51:00,
2013-11-10 22:56:00,33.1,21.5,30.08,SE,136,0.0,0.0,62,0.00,,---,0.00,VWS V14.01,2013-11-11 05:56:00,
2013-11-10 23:01:00,33.1,21.5,30.08,SE,128,0.0,0.0,62,0.00,,---,0.00,VWS V14.01,2013-11-11 06:01:00,
2013-11-10 23:06:00,32.7,21.1,30.08,SE,128,0.0,0.0,62,0.00,,---,0.00,VWS V14.01,2013-11-11 06:06:00,
2013-11-10 23:11:00,32.7,21.1,30.08,SE,128,0.0,0.0,62,0.00,,---,0.00,VWS V14.01,2013-11-11 06:11:00,
2013-11-10 23:16:00,32.5,21.0,30.08,SE,128,0.0,0.0,62,0.00,,---,0.00,VWS V14.01,2013-11-11 06:16:00,
2013-11-10 23:21:00,32.2,21.0,30.08,SE,128,0.0,0.0,63,0.00,,---,0.00,VWS V14.01,2013-11-11 06:21:00,
2013-11-10 23:26:00,32.2,21.0,30.08,SE,128,0.0,0.0,63,0.00,,---,0.00,VWS V14.01,2013-11-11 06:26:00,
2013-11-10 23:31:00,32.0,20.9,30.08,SE,128,0.0,0.0,63,0.00,,---,0.00,VWS V14.01,2013-11-11 06:31:00,
2013-11-10 23:36:00,31.8,20.7,30.08,South,185,0.0,0.0,63,0.00,,---,0.00,VWS V14.01,2013-11-11 06:36:00,
2013-11-10 23:41:00,31.8,20.7,30.08,South,185,0.0,0.0,63,0.00,,---,0.00,VWS V14.01,2013-11-11 06:41:00,
2013-11-10 23:46:00,31.6,20.5,30.08,South,185,0.0,0.0,63,0.00,,---,0.00,VWS V14.01,2013-11-11 06:46:00,
2013-11-10 23:51:00,31.8,21.0,30.08,South,185,0.0,0.0,64,0.00,,---,0.00,VWS V14.01,2013-11-11 06:51:00,
2013-11-10 23:56:00,31.6,20.9,30.08,South,185,0.0,0.0,64,0.00,,---,0.00,VWS V14.01,2013-11-11 06:56:00,